This demonstration page uses our WeatherBlox Daily Observations layout. Learn more.

Left ArrowRight Arrow

36.17497, -115.13722

Hourly Observations for January 20, 2016

Temp ( °F °C ) Dew Point ( °F °C ) Humidity (%) Winds ( mph kmh ) Pressure ( in mb ) Visibility ( mi km ) Precip ( " mm )
12:53 am 00:53 Cloudy 42 5.6 39 3.9 89 89 NNW 3 6 30.26 1025 10 16.0934 0 0
1:53 am 01:53 Cloudy 42 5.6 38 3.3 85 85 NNW 3 6 30.27 1025 10 16.0934 0 0
2:53 am 02:53 Cloudy 41 5 38 3.3 89 89 NNW 5 7 30.27 1025 10 16.0934 0 0
3:53 am 03:53 Cloudy 43 6.1 39 3.9 86 86 WNW 5 7 30.26 1025 10 16.0934 0 0
4:53 am 04:53 Cloudy 44 6.7 39 3.9 83 83 Calm 30.26 1025 10 16.0934 0 0
5:53 am 05:53 Cloudy 44 6.7 40 4.4 85 85 Calm 30.27 1025 10 16.0934 0 0
6:53 am 06:53 Cloudy 45 7.2 41 5 86 86 Calm 30.27 1025 10 16.0934 0 0
7:53 am 07:53 Cloudy 47 8.3 40 4.4 77 77 Calm 30.29 1026 10 16.0934 0 0
8:53 am 08:53 Cloudy 48 8.9 42 5.6 80 80 Calm 30.29 1026 10 16.0934 0 0
9:53 am 09:53 Sunny 52 11.1 40 4.4 64 64 Calm 30.32 1027 10 16.0934 0 0
10:53 am 10:53 Sunny 55 12.8 40 4.4 57 57 Calm 30.31 1027 10 16.0934 0 0
11:53 am 11:53 Sunny 55 12.8 40 4.4 57 57 SSE 5 7 30.27 1025 10 16.0934 0 0
12:53 pm 12:53 Sunny 57 13.9 40 4.4 53 53 Calm 30.25 1024 10 16.0934 0 0
1:53 pm 13:53 Sunny 60 15.6 40 4.4 47 47 E 3 6 30.23 1024 10 16.0934 0 0
2:53 pm 14:53 Sunny 61 16.1 39 3.9 44 44 Calm 30.22 1023 10 16.0934 0 0
3:53 pm 15:53 Sunny 58 14.4 40 4.4 51 51 ESE 10 17 30.23 1024 10 16.0934 0 0
4:53 pm 16:53 Sunny 56 13.3 39 3.9 53 53 ESE 6 9 30.25 1024 10 16.0934 0 0
5:53 pm 17:53 Clear 55 12.8 39 3.9 55 55 Calm 30.28 1026 10 16.0934 0 0
6:53 pm 18:53 Clear 53 11.7 39 3.9 59 59 Calm 30.3 1026 10 16.0934 0 0
7:53 pm 19:53 Clear 49 9.4 39 3.9 69 69 Calm 30.32 1027 10 16.0934 0 0
8:53 pm 20:53 Clear 48 8.9 40 4.4 74 74 WNW 5 7 30.36 1028 10 16.0934 0 0
9:53 pm 21:53 Clear 46 7.8 39 3.9 77 77 WNW 6 9 30.37 1029 10 16.0934 0 0
10:53 pm 22:53 Clear 46 7.8 37 2.8 71 71 NNW 3 6 30.38 1029 10 16.0934 0 0

Powered by AerisWeather